User: anonymous   Login
Location: Unspecified
(0.0000°N, 0.0000°E)
Time: 12:33:37
(UTC+00:00)
Language:

EO-79 - Orbit

View from above orbital plane
View from above orbital plane
View from above satellite
View from above satellite

Ground track
Ground track

The orbit data is extracted from the following two-line orbital elements,

1 40025U 14033R   22342.08532572  .00003545  00000-0  36004-3 0  9990
2 40025  97.9774 281.0550 0011004 198.8991 161.1820 14.91446335460142
Epoch (UTC): 08 December 2022 02:02:52
Eccentricity: 0.0011004
inclination: 97.9774°
perigee height: 586 km
apogee height: 601 km
right ascension of ascending node: 281.0550°
argument of perigee: 198.8991°
revolutions per day: 14.91446335
mean anomaly at epoch: 161.1820°
orbit number at epoch: 46014

The dashed part of the orbit path shows where the satellite is in the earth's shadow,  

DLR